Date String (YYYY-MM-DD hh:mm:ss) UTC,Instrument flags,Ambient pressure (hPa),Sample flow (lpm),Bypass flow (lpm),Sample temperature (°C),Ambient temperature (°C),ASC tube jacket temperature (°C),LED temperature (°C),Box temperature (°C),Sample RH (%),Span deviation,Mass concentration (μg/m³),Mass concentration (μg/m³),Mass concentration (μg/m³)
DateTimeUTC,F1_M11,P_M11,Q1_M11,Q2_M11,T1_M11,T2_M11,T3_M11,T4_M11,T5_M11,U1_M11,ZSPAN_M11,X0_M11,X2_M11,X1_M11
2021-11-28 10:00:00,,0831.0,5.00,0.00,22.8,21.9,00.0,31.9,24.6,14.4,0000.0,0007.77,0002.12,0001.15
2021-11-28 10:01:00,,0830.9,4.99,0.00,22.8,21.9,00.0,31.9,24.5,14.4,0000.0,0007.79,0002.11,0001.15
2021-11-28 10:02:00,,0830.9,5.00,0.00,22.8,21.8,00.0,31.9,24.5,14.4,0000.0,0008.09,0002.09,0001.16
2021-11-28 10:03:00,,0830.9,5.00,0.00,22.7,21.8,00.0,31.9,24.5,14.5,0000.0,0008.51,0002.06,0001.15
2021-11-28 10:04:00,,0830.9,5.01,0.00,22.7,21.8,00.0,31.9,24.5,14.5,0000.0,0008.46,0002.01,0001.14
2021-11-28 10:05:00,,0830.9,5.00,0.00,22.7,21.8,00.0,31.9,24.4,14.5,0000.0,0008.02,0002.02,0001.14
2021-11-28 10:06:00,,0830.9,5.00,0.00,22.7,21.8,00.0,31.8,24.4,14.5,0000.0,0008.04,0002.02,0001.14
2021-11-28 10:07:00,,0830.9,5.00,0.00,22.7,21.8,00.0,31.8,24.4,14.5,0000.0,0008.08,0002.07,0001.15
2021-11-28 10:08:00,,0830.9,4.99,0.00,22.6,21.8,00.0,31.8,24.4,14.5,0000.0,0008.05,0002.11,0001.15
2021-11-28 10:09:00,,0830.9,5.00,0.00,22.6,21.8,00.0,31.8,24.4,14.6,0000.0,0007.98,0002.13,0001.14
2021-11-28 10:10:00,,0830.8,4.99,0.00,22.6,21.7,00.0,31.8,24.4,14.6,0000.0,0006.83,0002.08,0001.13
2021-11-28 10:11:00,,0830.8,5.01,0.00,22.6,21.7,00.0,31.7,24.3,14.5,0000.0,0006.30,0002.00,0001.12
2021-11-28 10:12:00,,0830.7,5.00,0.00,22.6,21.7,00.0,31.7,24.4,14.5,0000.0,0005.98,0001.98,0001.12
2021-11-28 10:13:00,,0830.8,5.00,0.00,22.6,21.7,00.0,31.7,24.4,14.6,0000.0,0005.77,0002.00,0001.12
2021-11-28 10:14:00,,0830.8,5.01,0.00,22.6,21.7,00.0,31.7,24.3,14.6,0000.0,0004.94,0001.99,0001.12
2021-11-28 10:15:00,,0830.8,4.99,0.00,22.6,21.7,00.0,31.7,24.3,14.6,0000.0,0004.66,0001.97,0001.12
2021-11-28 10:16:00,,0830.8,5.02,0.00,22.5,21.6,00.0,31.7,24.3,14.6,0000.0,0004.35,0001.92,0001.12
2021-11-28 10:17:00,,0830.8,5.00,0.00,22.5,21.6,00.0,31.7,24.2,14.7,0000.0,0004.27,0001.91,0001.12
2021-11-28 10:18:00,,0830.8,5.02,0.00,22.5,21.6,00.0,31.6,24.2,14.7,0000.0,0004.25,0001.90,0001.11
2021-11-28 10:19:00,,0830.7,5.00,0.00,22.5,21.6,00.0,31.6,24.2,14.7,0000.0,0004.51,0001.86,0001.10
2021-11-28 10:20:00,,0830.7,4.99,0.00,22.5,21.6,00.0,31.6,24.3,14.7,0000.0,0005.64,0001.83,0001.09
2021-11-28 10:21:00,,0830.6,5.01,0.00,22.5,21.6,00.0,31.6,24.2,14.7,0000.0,0006.95,0001.89,0001.10
2021-11-28 10:22:00,,0830.6,4.98,0.00,22.5,21.6,00.0,31.6,24.2,14.7,0000.0,0006.90,0001.89,0001.10
2021-11-28 10:23:00,,0830.6,5.02,0.00,22.5,21.6,00.0,31.6,24.2,14.7,0000.0,0006.89,0001.89,0001.10
2021-11-28 10:24:00,,0830.6,5.00,0.00,22.4,21.6,00.0,31.6,24.2,14.7,0000.0,0006.59,0001.91,0001.11
2021-11-28 10:25:00,,0830.6,5.01,0.00,22.4,21.6,00.0,31.6,24.2,14.7,0000.0,0006.63,0001.90,0001.11
2021-11-28 10:26:00,,0830.6,4.99,0.00,22.4,21.6,00.0,31.6,24.2,14.7,0000.0,0006.50,0001.87,0001.11
2021-11-28 10:27:00,,0830.6,5.01,0.00,22.4,21.6,00.0,31.5,24.2,14.7,0000.0,0006.35,0001.84,0001.11
2021-11-28 10:28:00,,0830.6,4.99,0.00,22.4,21.6,00.0,31.5,24.2,14.7,0000.0,0006.38,0001.86,0001.11
2021-11-28 10:29:00,,0830.6,5.01,0.00,22.4,21.6,00.0,31.5,24.2,14.7,0000.0,0006.35,0001.85,0001.11
2021-11-28 10:30:00,,0830.6,4.99,0.00,22.4,21.6,00.0,31.5,24.2,14.7,0000.0,0006.25,0001.93,0001.13
2021-11-28 10:31:00,,0830.6,5.00,0.00,22.4,21.7,00.0,31.5,24.2,14.7,0000.0,0005.09,0001.96,0001.14
2021-11-28 10:32:00,,0830.6,5.00,0.00,22.4,21.7,00.0,31.5,24.2,14.7,0000.0,0004.86,0001.94,0001.15
2021-11-28 10:33:00,,0830.6,5.01,0.00,22.5,21.7,00.0,31.5,24.3,14.7,0000.0,0004.90,0001.92,0001.16
2021-11-28 10:34:00,,0830.6,5.00,0.00,22.5,21.7,00.0,31.5,24.3,14.6,0000.0,0004.97,0001.89,0001.16
2021-11-28 10:35:00,,0830.5,5.00,0.00,22.5,21.7,00.0,31.5,24.3,14.6,0000.0,0005.20,0001.86,0001.16
2021-11-28 10:36:00,,0830.5,5.00,0.00,22.5,21.7,00.0,31.5,24.2,14.6,0000.0,0005.08,0001.87,0001.17
2021-11-28 10:37:00,,0830.4,5.00,0.00,22.5,21.7,00.0,31.5,24.3,14.6,0000.0,0005.13,0001.94,0001.18
2021-11-28 10:38:00,,0830.5,5.01,0.00,22.5,21.7,00.0,31.5,24.2,14.6,0000.0,0005.40,0002.02,0001.21
2021-11-28 10:39:00,,0830.4,4.99,0.00,22.5,21.7,00.0,31.5,24.2,14.6,0000.0,0005.87,0002.03,0001.22
2021-11-28 10:40:00,,0830.4,5.01,0.00,22.4,21.7,00.0,31.5,24.2,14.6,0000.0,0006.63,0002.03,0001.23
2021-11-28 10:41:00,,0830.4,5.00,0.00,22.4,21.7,00.0,31.5,24.2,14.7,0000.0,0006.63,0001.99,0001.23
2021-11-28 10:42:00,,0830.4,4.99,0.00,22.4,21.6,00.0,31.5,24.1,14.7,0000.0,0006.56,0002.02,0001.23
2021-11-28 10:43:00,,0830.4,5.01,0.00,22.4,21.6,00.0,31.5,24.1,14.7,0000.0,0005.75,0002.01,0001.22
2021-11-28 10:44:00,,0830.4,5.00,0.00,22.4,21.5,00.0,31.5,24.1,14.7,0000.0,0005.78,0002.08,0001.23
2021-11-28 10:45:00,,0830.4,5.01,0.00,22.3,21.5,00.0,31.4,24.1,14.7,0000.0,0005.97,0002.14,0001.26
2021-11-28 10:46:00,,0830.4,4.99,0.00,22.3,21.5,00.0,31.4,24.1,14.7,0000.0,0007.00,0002.18,0001.27
2021-11-28 10:47:00,,0830.4,5.00,0.00,22.3,21.5,00.0,31.4,24.1,14.7,0000.0,0008.17,0002.22,0001.28
2021-11-28 10:48:00,,0830.3,5.01,0.00,22.3,21.5,00.0,31.4,24.1,14.7,0000.0,0008.34,0002.22,0001.28
2021-11-28 10:49:00,,0830.2,4.99,0.00,22.3,21.5,00.0,31.4,24.0,14.7,0000.0,0008.78,0002.26,0001.28
2021-11-28 10:50:00,,0830.2,5.02,0.00,22.3,21.5,00.0,31.4,24.0,14.8,0000.0,0008.64,0002.29,0001.29
2021-11-28 10:51:00,,0830.2,4.99,0.00,22.3,21.5,00.0,31.4,24.1,14.7,0000.0,0008.32,0002.32,0001.30
2021-11-28 10:52:00,,0830.2,5.00,0.00,22.3,21.5,00.0,31.4,24.1,14.8,0000.0,0008.50,0002.38,0001.31
2021-11-28 10:53:00,,0830.2,4.98,0.00,22.3,21.5,00.0,31.4,24.0,14.8,0000.0,0009.20,0002.38,0001.32
2021-11-28 10:54:00,,0830.1,5.01,0.00,22.3,21.5,00.0,31.4,24.0,14.8,0000.0,0009.27,0002.39,0001.34
2021-11-28 10:55:00,,0830.1,5.00,0.00,22.3,21.5,00.0,31.4,24.1,14.7,0000.0,0009.29,0002.38,0001.35
2021-11-28 10:56:00,,0830.2,5.00,0.00,22.3,21.5,00.0,31.4,24.0,14.8,0000.0,0009.34,0002.38,0001.34
2021-11-28 10:57:00,,0830.1,5.01,0.00,22.3,21.5,00.0,31.3,24.1,14.8,0000.0,0008.90,0002.40,0001.35
2021-11-28 10:58:00,,0830.1,4.98,0.00,22.3,21.5,00.0,31.3,24.1,14.8,0000.0,0008.08,0002.43,0001.35
2021-11-28 10:59:00,,0830.1,5.00,0.00,22.3,21.5,00.0,31.3,24.1,14.8,0000.0,0008.19,0002.44,0001.36
